Regional Weather Roundup
Issued by NWS Charleston, SC

Current Version | Previous Version | Graphics & Text | Print | Product List | Glossary Off
Versions: 1 2 3 4 5 6 7 8 9 10 11 12 13 14 15 16 17 18 19 20 21 22 23 24 25 26 27 28 29 30 31 32 33 34 35 36 37 38 39 40 41 42 43 44 45 46 47 48 49 50

988
ASUS42 KCHS 300127
RWRCHS

REGIONAL WEATHER ROUNDUP
NATIONAL WEATHER SERVICE CHARLESTON SC
900 PM EDT WED MAR 29 2017

NOTE: "FAIR" INDICATES FEW OR NO CLOUDS BELOW 12,000 FEET WITH NO
SIGNIFICANT WEATHER AND/OR OBSTRUCTIONS TO VISIBILITY.

NOT ALL STATIONS ARE QUALITY CONTROLLED. USE DATA WITH CAUTION...
ESPECIALLY DEWPOINT OBSERVATIONS.

SCZ027-030-031-034>040-042>050-300200-
...SOUTHEAST SOUTH CAROLINA...

CITY           SKY/WX    TMP DP  RH WIND       PRES   REMARKS
N CHARLESTON   MOCLDY    67  63  87 E9        30.04R
WATERFRONT PRK   N/A     66  65  96 E12       30.03R
JOHNS ISLAND   CLOUDY    66  66 100 E9        30.05R
PINOPOLIS        N/A    N/A N/A N/A SE5       29.95R
MONCKS CORNER  FAIR      66  59  77 SE7       30.05R
SUMMERVILLE    FAIR      68  59  73 E6        30.05R
BEAUFORT MCAS  PTCLDY    68  64  87 E8        30.02R
BEAUFORT ARPT  FAIR      64  63  94 E5        30.03R
HILTON HEAD IS CLEAR     64  63  94 VRB3      30.03S
WALTERBORO     MOCLDY    68  59  73 SE7       30.03R
ALLENDALE      FAIR      72  55  56 CALM      29.99S

...SOUTHERN MIDLANDS AND PEE DEE...

CITY           SKY/WX    TMP DP  RH WIND       PRES   REMARKS
GEORGETOWN     CLOUDY    61  59  94 E8        30.09R
KINGSTREE      FAIR      63  55  77 E8        30.06R
ORANGEBURG     CLEAR     73  50  44 NE3       30.01R
BARNWELL       FAIR      70  55  60 CALM      30.01R
AIKEN          FAIR      64  52  63 CALM      30.04R
MANNING        FAIR      66  57  72 E5        30.05R
COLUMBIA       PTCLDY    75  51  43 CALM      30.00R
SUMTER         CLEAR     70  53  54 NE5       30.00R
FLORENCE       CLEAR     68  58  70 SE12      30.06R
MYRTLE BEACH   MOCLDY    63  57  82 E12       30.10R
N MYRTLE BEACH PTCLDY    62  56  80 E9        30.09R

$$

GAZ063-065-086>088-099>101-113>116-118-119-134>141-150-300200-
...SOUTHEAST GEORGIA...

CITY           SKY/WX    TMP DP  RH WIND       PRES   REMARKS
SAVANNAH ARPT  MOCLDY    71  56  58 S5        30.01R
HUNTER AAF     CLEAR     68  63  84 CALM      29.99R
FORT STEWART   PTCLDY    69  58  65 CALM      29.99R
STATESBORO     CLEAR     69  62  79 CALM      30.00R
SYLVANIA       PTCLDY   N/A N/A N/A CALM      30.01R
CLAXTON        FAIR     N/A N/A N/A CALM      30.00R

...CSRA...CENTRAL AND FAR SOUTHEAST GEORGIA...

CITY           SKY/WX    TMP DP  RH WIND       PRES   REMARKS
THOMSON        CLEAR     70  55  57 SE3       30.05R
AUGUSTA-BUSH   CLEAR     67  57  70 CALM      29.98R
AUGUSTA-DANIEL CLEAR     77  51  40 E5        30.00R
SWAINSBORO     FAIR      70  59  68 CALM      30.01R
VIDALIA        CLEAR     73  61  64 CALM      30.00R
EASTMAN        MOCLDY    78  51  39 CALM      30.01R
HAZLEHURST     MOCLDY    72  72 100 CALM      29.98R
ALMA           CLOUDY    76  64  66 SE3       29.98R
WAYCROSS       RAIN      82  66  59 SE3       29.99S
JESUP          CLOUDY    73  63  68 CALM      30.01R
BAXLEY         CLOUDY    75  70  83 CALM      29.99R
BRUNSWICK      PTCLDY    70  66  88 SE3       30.03R
SAINT SIMONS   CLEAR     69  65  86 E6        30.01R

$$

SCZ027-028-034-036>038-045-046-048>050-GAZ119-141-300200-
...LAKE AND SUPPLEMENTAL COASTAL OBSERVATIONS...

STATION/POSITION TIME  TEMP    WIND        PRES    WAVE   SWELL
                       AIR SEA DIR/SP/G            HT/PER HT/PER/DIR
                 (UTC) (F)     (DEG/KT/KT) (MB)    (FT/S) (FT/S/D)
WINYAH BAY       0030   63      60/  7     1018.0R
LAKE MURRAY      0020   72        CALM     1015.2
ACE BASIN NERRS  0045   66     100/  1     1017.0R
FORT PULASKI     0100   65 67  140/  3/  4 1016.7
SAPELO ISLAND    0100   68        CALM     1016.0

$$

ANZ835-935-AMZ111-154-330-350-352-354-370-450-454-472-300200-
...C-MAN AND BUOY OBSERVATIONS...

STATION/POSITION TIME  TEMP    WIND        PRES    WAVE   SWELL
                       AIR SEA DIR/SP/G            HT/PER HT/PER/DIR
                 (UTC) (F)     (DEG/KT/KT) (MB)    (FT/S) (FT/S/D)
BUOY 41004       0050   71 68   80/ 10/ 12 1016.8R   4/10   3/100/10
BUOY 41008       0050   66 66  120/  8/ 10 1015.8F   3/10   3/140/10
FOLLY BEACH CMAN 0100   64      60/ 10/ 11 1017.9R
CAPERS NEARSHORE NOT AVBL
FRIPP NEARSHORE  0108   64 63   80/  6/  8 1016.4R


STATION/POSITION TIME  TEMP    WIND        PRES    WAVE   SWELL
                       AIR SEA DIR/SP/G            HT/PER HT/PER/DIR
                 (UTC) (F)     (DEG/KT/KT) (MB)    (FT/S) (FT/S/D)
5E ST. MARYS GA  0100      69                N/A     3/11   2/120/11
FRYING PAN BUOY  0100   68 74   60/ 17/ 21 1018.3
BUOY 41025       0050   59 74   30/ 21/ 27 1019.6R   7/ 8   3/ 10/15
CAPE LOOKOUT NC  0100   60      50/ 18/ 20 1020.0R
BUOY 41002       0050   70 72   50/ 17/ 19 1016.6R   5/10   5/110/10
BUOY 41010       NOT AVBL
ST AUGUSTINE FL  0100   71 71  170/  9/ 10 1017.0R


$$




USA.gov is the U.S. government's official web portal to all federal, state and local government web resources and services.